[[{"header":{"parameterUnit":"m.s-1","parameterCategory":1,"la1":30.2991,"la2":30.254,"lo1":-89.0895,"lo2":-89.0444,"dy":0.0017,"dx":0.0017,"nx":28,"ny":28,"refTime":"2026-03-05T09:00:00:Z","depth":0,"parameterNumber":2,"parameterNumberName":"U-component_of_WINDS"},"data":[0,0,0,0,0,0,0,0,0,0,0,0,0,0,0,0,0,0,0,0,0,0,0,0,0,0,0,0,0,0,0,0,0,0,0,0,0,0,0,0,0,0,0,0,0,0,0,0,0,0,0,0,0,0,0,0,0,0,-3.691,-3.6911,0,-3.7007,-3.7008,-3.7009,-3.7005,-3.7004,-3.7003,-3.7001,-3.7101,-3.7105,-3.7109,0,0,0,0,0,0,0,0,0,0,0,0,0,-3.6721,-3.6724,-3.6909,-3.6911,-3.6912,-3.7007,-3.7008,-3.7009,-3.7006,-3.7004,-3.7002,-3.7001,-3.71,-3.7104,-3.7109,0,0,0,0,0,0,0,0,0,0,0,0,0,-3.6809,-3.6725,-3.6909,-3.6921,-3.6923,-3.7007,-3.7008,-3.701,-3.7006,-3.7004,-3.7002,-3.7,-3.7098,-3.7104,-3.711,-3.7187,0,0,-3.7128,-3.713,0,0,0,0,0,0,0,0,-3.6804,-3.6816,-3.6918,-3.6921,-3.6923,-3.6992,-3.6978,-3.7069,-3.7006,-3.6975,-3.7001,-3.6999,-3.7066,-3.7075,-3.7097,-3.7192,-3.7196,-3.7128,-3.7132,-3.7134,-3.7136,0,0,0,0,0,0,0,-3.6798,-3.6812,-3.6948,-3.692,-3.6923,-3.6922,-3.6933,-3.6995,-3.7031,-3.6977,-3.6977,-3.6989,-3.7067,-3.7092,-3.71,-3.7197,-3.7128,-3.7133,-3.7137,-3.7139,-3.7361,-3.7363,0,0,0,0,0,0,-3.6789,-3.6807,-3.6945,-3.6951,-3.6857,-3.6927,-3.6939,-3.6972,-3.703,-3.7037,-3.699,-3.6988,-3.7083,-3.7093,-3.7103,-3.7198,-3.7134,-3.714,-3.7143,-3.7359,-3.7362,-3.7364,0,0,0,0,0,0,-3.6785,-3.6801,-3.6941,-3.6879,-3.6897,-3.6933,-3.697,-3.6975,-3.6999,-3.704,-3.7046,-3.7009,-3.7081,-3.7095,-3.7166,-3.7201,-3.7142,-3.7148,-3.7356,-3.736,-3.7363,-3.7387,0,0,0,0,0,0,-3.678,-3.68,-3.6829,-3.688,-3.69,-3.7002,-3.6972,-3.6978,-3.701,-3.7008,-3.7059,-3.7066,-3.7081,-3.7158,-3.7172,-3.7208,-3.7152,-3.7353,-3.7358,-3.7362,-3.7383,-3.7391,-3.7397,0,0,0,0,0,-3.6773,-3.6832,-3.6831,-3.6847,-3.6937,-3.7004,-3.7016,-3.7032,-3.7012,-3.7042,-3.7069,-3.7064,-3.7196,-3.7165,-3.7181,-3.7219,-3.7351,-3.7356,-3.7362,-3.738,-3.7389,-3.7397,0,0,0,0,0,0,-3.6784,-3.6838,-3.6838,-3.6915,-3.6955,-3.7003,-3.7041,-3.7041,-3.7088,-3.7084,-3.7103,-3.7114,-3.7186,-3.721,-3.7175,-3.7298,-3.7271,-3.728,-3.7279,-3.7288,-3.7295,-3.7287,-3.7157,0,0,0,0,0,-3.6796,-3.6845,-3.689,-3.6954,-3.6974,-3.7004,-3.7034,-3.7044,-3.7086,-3.7103,-3.7134,-3.7175,-3.7226,-3.7259,-3.7308,-3.7388,-3.7399,-3.7422,-3.7429,-3.7435,-3.7442,-3.7486,-3.7497,-3.7382,-3.7382,-3.7382,0,0,-3.6819,-3.6855,-3.6885,-3.6957,-3.6989,-3.704,-3.7018,-3.7073,-3.7111,-3.7111,-3.718,-3.7205,-3.7253,-3.7329,-3.7364,-3.7351,-3.7476,-3.7442,-3.7446,-3.745,-3.7493,-3.7503,-3.7513,-3.7385,-3.7385,-3.7384,0,0,-3.6888,-3.6921,-3.6978,-3.7011,-3.706,-3.708,-3.7094,-3.7143,-3.716,-3.723,-3.7231,-3.7277,-3.7364,-3.7398,-3.7426,-3.7512,-3.7509,-3.7527,-3.7564,-3.7607,-3.7616,-3.7624,-3.7653,-3.7664,-3.7535,-3.7535,-3.7535,0,-3.6912,-3.6988,-3.7007,-3.7062,-3.7094,-3.7097,-3.7154,-3.7186,-3.7249,-3.7271,-3.7256,-3.7366,-3.7398,-3.7482,-3.7503,-3.7527,-3.7543,-3.752,-3.7613,-3.7621,-3.7629,-3.7657,-3.7669,-3.7536,-3.7536,-3.7536,-3.7536,0,-3.7014,-3.7068,-3.7108,-3.7169,-3.7205,-3.7261,-3.7289,-3.7324,-3.7331,-3.7353,-3.7425,-3.7464,-3.7521,-3.7543,-3.755,-3.7629,-3.7619,-3.7609,-3.7581,-3.7641,-3.7668,-3.768,-3.7539,-3.7538,-3.7538,-3.7537,0,0,-3.709,-3.7162,-3.7176,-3.7204,-3.726,-3.7302,-3.736,-3.7416,-3.7445,-3.749,-3.7538,-3.7613,-3.7604,-3.7636,-3.7648,-3.7686,-3.7751,-3.7671,-3.7673,-3.7684,-3.7839,-3.7845,-3.7857,-3.7751,-3.7753,-3.7755,-3.7835,0,-3.7164,-3.7264,-3.7284,-3.7372,-3.7421,-3.7427,-3.7477,-3.7517,-3.754,-3.7586,-3.7612,-3.7664,-3.7649,-3.7669,-3.7707,-3.7735,-3.7782,-3.773,-3.7795,-3.7797,-3.7781,-3.7872,-3.7878,-3.7951,-3.7846,-3.7848,-3.7849,0,-3.7262,-3.731,-3.7402,-3.7453,-3.7474,-3.7519,-3.7572,-3.7617,-3.7663,-3.7677,-3.7715,-3.7723,-3.7783,-3.7756,-3.7839,-3.7803,-3.7832,-3.785,-3.7853,-3.7858,-3.7825,-3.7877,-3.7975,-3.7986,-3.7866,-3.7864,-3.7863,0,-3.7307,-3.7394,-3.7461,-3.7485,-3.7546,-3.7577,-3.7604,-3.7648,-3.7681,-3.7729,-3.775,-3.7805,-3.7834,-3.7876,-3.7899,-3.7877,-3.7981,-3.7955,-3.7994,-3.7993,-3.8013,-3.8011,-3.8115,-3.8035,-3.8035,-3.8035,-3.8034,0,-3.7386,-3.7442,-3.7481,-3.7522,-3.7586,-3.7609,-3.7671,-3.7698,-3.7738,-3.7784,-3.7793,-3.7837,-3.7865,-3.7913,-3.7932,-3.7998,-3.8012,-3.8025,-3.8029,-3.8023,-3.8021,-3.804,-3.8035,-3.8038,-3.8037,-3.8036,-3.8036,0,-3.7445,-3.7473,-3.7546,-3.7599,-3.7614,-3.7658,-3.7703,-3.7743,-3.7768,-3.7827,-3.7842,-3.788,-3.7937,-3.7965,-3.8036,-3.8049,-3.8123,-3.8125,-3.8107,-3.8108,-3.8145,-3.8141,-3.8263,-3.828,-3.8191,-3.8191,-3.8192,0,-3.7492,-3.7535,-3.7593,-3.7625,-3.7653,-3.7704,-3.7738,-3.7764,-3.7799,-3.7856,-3.789,-3.7947,-3.7994,-3.8086,-3.812,-3.8175,-3.8176,-3.8216,-3.8184,-3.8177,-3.8175,-3.8172,-3.8176,-3.822,-3.8221,-3.8222,-3.8223,0,-3.7573,-3.7585,-3.7634,-3.7689,-3.7729,-3.7773,-3.7816,-3.7842,-3.7875,-3.7914,-3.7973,-3.801,-3.8083,-3.814,-3.8198,-3.8226,-3.823,-3.8233,-3.8245,-3.8238,-3.8225,-3.8231,-3.812,-3.8229,-3.8228,-3.8228,-3.8228,-3.8227,-3.7626,-3.7665,-3.7712,-3.7767,-3.7802,-3.7843,-3.7884,-3.7914,-3.7963,-3.8024,-3.8037,-3.8099,-3.8146,-3.8224,-3.8255,-3.8304,-3.8295,-3.8312,-3.8316,-3.832,-3.8321,-3.8219,-3.8315,-3.8315,-3.8315,-3.8315,-3.8315,0,-3.7706,-3.7737,-3.7787,-3.7848,-3.7891,-3.7893,-3.7941,-3.7977,-3.8032,-3.8075,-3.8122,-3.819,-3.8247,-3.8286,-3.8344,-3.8376,-3.8379,-3.839,-3.8386,-3.8393,-3.8326,-3.831,-3.8386,-3.8386,-3.8386,-3.8386,-3.8386,-3.8386,-3.7752,-3.7818,-3.7837,-3.7921,-3.7952,-3.8013,-3.8041,-3.8079,-3.8114,-3.819,-3.8236,-3.8262,-3.8305,-3.8366,-3.8418,-3.8428,-3.8448,-3.8459,-3.8469,-3.8405,-3.8397,-3.839,-3.8374,-3.8463,-3.8463,-3.8531,-3.8531,-3.8532]},{"header":{"parameterUnit":"m.s-1","parameterCategory":1,"la1":30.2991,"la2":30.254,"lo1":-89.0895,"lo2":-89.0444,"dy":0.0017,"dx":0.0017,"nx":28,"ny":28,"refTime":"2026-03-05T09:00:00:Z","depth":0,"parameterNumber":3,"parameterNumberName":"V-component_of_WINDS"},"data":[0,0,0,0,0,0,0,0,0,0,0,0,0,0,0,0,0,0,0,0,0,0,0,0,0,0,0,0,0,0,0,0,0,0,0,0,0,0,0,0,0,0,0,0,0,0,0,0,0,0,0,0,0,0,0,0,0,0,1.6364,1.6364,0,1.6431,1.6431,1.6432,1.6466,1.6466,1.6466,1.6466,1.6533,1.6535,1.6537,0,0,0,0,0,0,0,0,0,0,0,0,0,1.6265,1.6267,1.6363,1.6364,1.6365,1.643,1.6431,1.6432,1.6466,1.6466,1.6466,1.6466,1.6533,1.6535,1.6537,0,0,0,0,0,0,0,0,0,0,0,0,0,1.6318,1.6268,1.6363,1.639,1.6393,1.643,1.6431,1.6433,1.6466,1.6466,1.6466,1.6466,1.6532,1.6535,1.6537,1.6553,0,0,1.6545,1.6547,0,0,0,0,0,0,0,0,1.6315,1.6321,1.6385,1.6388,1.6392,1.644,1.6422,1.6473,1.6466,1.6438,1.6466,1.6466,1.6502,1.6507,1.652,1.6556,1.6559,1.6546,1.6547,1.6548,1.6549,0,0,0,0,0,0,0,1.6311,1.6319,1.639,1.6386,1.639,1.6399,1.6406,1.6431,1.6469,1.6441,1.6443,1.6451,1.6504,1.6517,1.6522,1.656,1.6546,1.6548,1.655,1.6551,1.6616,1.6616,0,0,0,0,0,0,1.6303,1.6315,1.6388,1.6392,1.6353,1.64,1.6409,1.6424,1.6469,1.6476,1.6451,1.6452,1.6513,1.6519,1.6524,1.6547,1.6548,1.6551,1.6552,1.6616,1.6616,1.6616,0,0,0,0,0,0,1.6301,1.6309,1.6385,1.6354,1.6365,1.6402,1.6419,1.6426,1.6439,1.6477,1.6483,1.6457,1.6513,1.652,1.6546,1.655,1.6552,1.6555,1.6615,1.6616,1.6616,1.6593,0,0,0,0,0,0,1.6298,1.6308,1.6314,1.6354,1.6366,1.6406,1.642,1.6427,1.6444,1.6446,1.6485,1.6491,1.6514,1.6542,1.6549,1.6554,1.6557,1.6615,1.6616,1.6616,1.6593,1.6592,1.6591,0,0,0,0,0,1.6294,1.6304,1.6314,1.6323,1.6374,1.6406,1.6413,1.6439,1.6444,1.645,1.6475,1.649,1.6549,1.6545,1.6553,1.6558,1.6615,1.6615,1.6616,1.6594,1.6592,1.6591,0,0,0,0,0,0,1.6262,1.631,1.6321,1.6344,1.6371,1.6412,1.6421,1.6436,1.6461,1.6463,1.6494,1.6502,1.6526,1.6545,1.6539,1.6577,1.6583,1.6585,1.6564,1.6563,1.6562,1.6557,1.6559,0,0,0,0,0,1.6258,1.6279,1.632,1.6336,1.6349,1.6383,1.6397,1.6415,1.6444,1.6455,1.6482,1.6509,1.6534,1.6549,1.6574,1.6596,1.6606,1.6604,1.6603,1.6602,1.6603,1.6619,1.6619,1.6617,1.6617,1.6617,0,0,1.6249,1.6277,1.6289,1.633,1.6353,1.6376,1.6392,1.6414,1.6431,1.6458,1.6485,1.6506,1.6538,1.6563,1.6575,1.6579,1.6606,1.6602,1.6601,1.6603,1.6619,1.6619,1.662,1.6617,1.6617,1.6617,0,0,1.6244,1.6267,1.6285,1.6308,1.6343,1.6365,1.637,1.6409,1.6424,1.6451,1.6473,1.6494,1.6536,1.6559,1.6576,1.6583,1.6598,1.659,1.6584,1.6599,1.66,1.66,1.6604,1.6605,1.6592,1.6592,1.6591,0,1.6228,1.6263,1.6291,1.6314,1.6332,1.6359,1.6378,1.6399,1.6439,1.6452,1.6456,1.6511,1.6535,1.6566,1.6569,1.6581,1.6588,1.6586,1.6597,1.6598,1.6599,1.6603,1.6604,1.659,1.6591,1.6591,1.6591,0,1.6243,1.6266,1.6276,1.6317,1.6336,1.6356,1.6389,1.6405,1.6423,1.6445,1.6474,1.6504,1.6536,1.6545,1.6561,1.658,1.6582,1.6591,1.6598,1.6597,1.6602,1.6604,1.6589,1.6589,1.659,1.659,0,0,1.6217,1.6276,1.6279,1.6299,1.6341,1.636,1.6382,1.6415,1.6429,1.6457,1.6477,1.6513,1.6523,1.6543,1.6562,1.6575,1.6582,1.6583,1.6585,1.6583,1.6606,1.66,1.6601,1.6592,1.6592,1.6593,1.6604,0,1.6219,1.6261,1.6289,1.6319,1.6343,1.6371,1.639,1.6419,1.6441,1.6464,1.6489,1.6515,1.6525,1.6537,1.6551,1.6578,1.6587,1.6577,1.6612,1.6613,1.6604,1.6603,1.6596,1.6605,1.6606,1.6606,1.6607,0,1.6227,1.6256,1.6289,1.6331,1.6342,1.6359,1.6393,1.6415,1.6448,1.6464,1.6487,1.6507,1.6533,1.6538,1.6575,1.6568,1.6584,1.6599,1.6601,1.6605,1.661,1.6609,1.6608,1.661,1.661,1.6609,1.6609,0,1.6207,1.6254,1.6281,1.6297,1.6346,1.6358,1.6379,1.6412,1.6431,1.6461,1.6474,1.6506,1.6523,1.6548,1.6577,1.6577,1.6611,1.6618,1.6626,1.6625,1.6632,1.6631,1.6635,1.664,1.664,1.664,1.664,0,1.6207,1.6226,1.6273,1.629,1.6313,1.6346,1.6368,1.6392,1.6422,1.6444,1.6469,1.649,1.6527,1.6552,1.6575,1.6603,1.661,1.6624,1.663,1.6622,1.6621,1.6633,1.6634,1.6641,1.6641,1.6641,1.6641,0,1.6188,1.622,1.6252,1.6297,1.6309,1.6324,1.6363,1.6381,1.6405,1.6433,1.6442,1.648,1.6511,1.6543,1.6584,1.66,1.6628,1.6636,1.6617,1.6621,1.6627,1.6627,1.664,1.6644,1.6646,1.6646,1.6646,0,1.6186,1.6202,1.625,1.6267,1.6288,1.6315,1.6335,1.6368,1.6388,1.643,1.6443,1.6476,1.6505,1.6553,1.6585,1.6618,1.6627,1.663,1.6632,1.6625,1.6629,1.6628,1.6631,1.6628,1.6628,1.6628,1.6628,0,1.618,1.6196,1.6224,1.6258,1.6282,1.6311,1.634,1.6353,1.6392,1.6414,1.6447,1.6469,1.6513,1.6546,1.6583,1.6606,1.6624,1.6627,1.6631,1.6623,1.6613,1.662,1.6615,1.6627,1.6627,1.6627,1.6627,1.6627,1.617,1.6187,1.6224,1.6255,1.6281,1.6309,1.6329,1.6357,1.6385,1.6424,1.6442,1.6476,1.6512,1.6564,1.6586,1.6613,1.6618,1.6623,1.6624,1.6625,1.6624,1.6608,1.662,1.662,1.662,1.662,1.662,0,1.6166,1.6192,1.6221,1.6262,1.6288,1.6304,1.6338,1.6358,1.6388,1.6419,1.6448,1.6487,1.652,1.6556,1.6592,1.6607,1.6616,1.6615,1.6615,1.662,1.6617,1.6611,1.6607,1.6607,1.6607,1.6607,1.6607,1.6607,1.6167,1.6197,1.6218,1.6262,1.6287,1.6321,1.634,1.6366,1.6392,1.6435,1.6463,1.6487,1.6521,1.656,1.6592,1.6601,1.6614,1.661,1.6623,1.6619,1.662,1.6621,1.6615,1.6613,1.6613,1.6624,1.6624,1.6624]}]]